www.pogodaiklimat.ru

Погода и климат >> Архив погоды >> Нигер >> Gaya


ПОГОДА в Gaya

  • Прогноз погоды в Gaya
  • Монитор погоды в Gaya
  • Климат города

АРХИВ ПОГОДЫ в Gaya

Время (UTC), дата Ветер
(напр.,м/с)
 
Видим.   Явления Облачность Т
(С)
Тd
(С)
f
(%)
Тe
(С)
Тes
(С)
Комфортность P
(гПа)
Po
(гПа)
Тmin
(С)
Tmax
(С)
R
(мм)
R24
(мм)
S
(см)
12 17.04 С 4 15 км 9/0
[Cs]
+39.4 +13.3 21 +39 +52 опасность
солнечного
удара
1008.4 986.5
15 17.04 штиль 0 15 км 9/0
[Cs]
+41.8 +9.6 15 +40 +52 опасность
солнечного
удара
1005.7 983.8
18 17.04 штиль 0 15 км 9/0
[Cs]
+40.0 +3.4 11 +37 +37 очень
жарко
1005.7 983.7 +42.6
21 17.04 штиль 0 15 км 9/0
[Cs]
+36.2 +9.8 20 +35 +35 очень
жарко
1007.8 985.7
06 18.04 З 4 15 км 9/0
[Cs]
+29.4 +21.5 63 +37 +38 очень
душно
1008.4 986.5 +28.6
09 18.04 ЮЗ 10 15 км 9/0
[Cs]
+34.0 +22.6 51 +43 +44 опасность
перегрева
1008.8 988.7
12 18.04 В 8 15 км 9/0
[Cs]
+40.0 +12.8 20 +40 +43 очень
душно
1008.5 986.5
15 18.04 В 6 15 км 9/0
[Cs]
+42.5 +5.8 11 +40 +43 очень
жарко
1006.7 984.8
18 18.04 СВ 4 10 км 9/0
[Cs]
+40.0 +7.0 14 +38 +38 очень
жарко
1006.6 984.6 +43.0
21 18.04 З 4 10 км 4/0
[Ci fib]
+36.5 +4.3 14 +34 +34 очень
жарко
1007.2 965.2
03 19.04 Ю 6 10 км 9/0
[Cs]
+30.5 +20.9 57 +38 +38 очень
душно
1007.7 985.8
06 19.04 Ю 4 15 км 9/0
[Cs]
+29.8 +21.3 60 +37 +38 очень
душно
1008.5 986.4 +29.0
09 19.04 СЗ 4 10 км 9/0
[Cs]
+33.6 +21.4 49 +41 +49 опасность
перегрева
1009.6 987.5
12 19.04 штиль 0 15 км 9/1 1200 м
[Cu hum Cs]
+39.2 +15.8 25 +41 +63 опасность
перегрева
1008.3 986.3
15 19.04 штиль 0 15 км 9/1 1200 м
[Cu hum Cs]
+42.0 +12.3 17 +41 +51 опасность
перегрева
1005.1 983.2
18 19.04 СВ 4 15 км 9/0
[Ac lent Cs]
+40.4 +12.6 19 +40 +40 очень
жарко
1004.2 982.3 +43.0
21 19.04 С 4 15 км 9/0
[Ac lent Cs]
+37.0 +10.1 20 +36 +36 очень
жарко
1005.2 983.2
03 20.04 штиль 0 15 км 9/0
[Cs]
+32.2 +14.6 35 +34 +34 душно 1005.7 1006.0
06 20.04 З 4 15 км 9/0
[Cs]
+30.6 +18.5 48 +35 +35 очень
душно
1007.1 985.1 +30.2
09 20.04 ЮЗ 6 15 км 9/0
[Cs]
+35.0 +12.9 26 +43 +47 опасность
перегрева
1008.8 986.8
12 20.04 В 10 15 км 9/0
[Cs]
+41.5 +5.2 11 +39 +39 очень
жарко
1006.3 984.4
15 20.04 СВ 10 15 км 9/0
[Cs]
+42.8 +2.6 9 +40 +40 очень
жарко
1003.6 981.9
18 20.04 В 2 10 км 9/0
[Cs]
+40.0 +8.6 15 +38 +38 очень
жарко
1003.4 981.5 +44.0
21 20.04 штиль 0 10 км 9/0
[Cs]
+35.0 +12.4 26 +35 +35 очень
жарко
1005.1 983.1
03 21.04 Ю 4 10 км 9/0
[Cs]
+30.0 +12.0 33 +31 +31 жарко 1005.5 983.5
06 21.04 штиль 0 15 км 9/0
[Cs]
+28.4 +22.9 72 +38 +38 очень
душно
1007.1 985.0 +27.5
09 21.04 З 4 10 км 9/0
[Cs]
+32.0 +22.9 59 +42 +49 опасность
перегрева
1008.6 986.4
12 21.04 СЗ 4 10 км 9/0
[Cs]
+37.4 +19.0 34 +42 +54 опасность
перегрева
1007.3 985.2
15 21.04 СЗ 4 15 км 9/0
[Cs]
+39.0 +16.8 27 +41 +47 опасность
перегрева
1004.4 982.4
18 21.04 штиль 0 10 км 9/0
[Cs]
+37.0 +15.1 27 +38 +38 душно 1005.6 983.4 +40.4
21 21.04 штиль 0 15 км 9/0
[Cs]
+34.4 +13.8 29 +35 +35 очень
жарко
1006.4 984.3
03 22.04 СЗ 4 10 км 9/0
[Cs]
+30.0 +15.7 42 +33 +33 душно 1005.4 983.4
06 22.04 З 4 10 км 9/0
[Cs]
+29.4 +18.8 53 +35 +35 очень
душно
1007.4 985.3 +27.5
09 22.04 ЮЗ 6 15 км 9/0
[Cs]
+33.5 +22.0 51 +42 +46 опасность
перегрева
1009.4 987.2
12 22.04 Ю 4 15 км 9/0
[Cs]
+38.5 +18.4 31 +42 +54 опасность
перегрева
1007.7 985.7
15 22.04 СВ 10 15 км 9/0
[Cs]
+41.5 +11.6 17 +41 +41 опасность
перегрева
1004.1 983.3
18 22.04 СВ 2 10 км 9/0
[Cs]
+40.0 +7.0 14 +38 +38 очень
жарко
1004.6 982.6 +42.5
21 22.04 штиль 0 10 км 9/0
[Cs]
+36.0 +11.0 22 +35 +35 очень
жарко
1006.7 984.7
03 23.04 Ю 4 10 км 9/0
[Cs]
+32.0 +17.3 41 +36 +36 очень
душно
1005.9 984.0
06 23.04 штиль 0 10 км 9/0
[Cs]
+30.0 +19.5 53 +36 +36 очень
душно
1007.6 985.5 +27.5
09 23.04 ЮЗ 4 10 км 9/0
[Cs]
+33.0 +23.1 56 +43 +50 опасность
перегрева
1009.2 987.1
12 23.04 штиль 0 15 км 9/1 1200 м
[Cu hum Cs]
+39.0 +18.1 30 +43 +65 опасность
перегрева
1007.1 985.2
15 23.04 штиль 0 15 км 9/0
[Cs]
+42.0 +9.4 14 +40 +41 очень
жарко
1003.6 981.8
18 23.04 штиль 0 10 км 9/0
[Cs]
+40.6 +2.5 10 +37 +37 очень
жарко
1003.6 981.7 +42.5
21 23.04 штиль 0 10 км 9/0
[Cs]
+36.4 +7.8 17 +34 +34 очень
жарко
1005.3 983.3
03 24.04 СЗ 4 10 км 9/0
[Cs]
+31.0 +18.2 46 +35 +35 очень
душно
1005.4 983.5
06 24.04 З 4 10 км 9/0
[Cs]
+29.6 +21.7 63 +38 +38 очень
душно
1006.5 984.5 +29.4
09 24.04 З 12 15 км 9/0
[Cs]
+34.6 +23.4 52 +45 +45 опасность
перегрева
1008.7 986.7

 

Местоположение метеостанции Gaya (Нигер): широта 11.88 долгота 3.45 высота над уровнем моря 203 м.

В архиве по умолчанию представлена погода в Gaya за последнюю неделю. Архивные данные за месяц целиком и за предыдущие месяцы, начиная с января 2011 года, Вы можете получить, выбрав интересующий диапазон дат из раскрывающегося списка и нажав кнопку "Ввод!".


*Определитесь, кто Вы:
робот инопланетянин человек

Внимание! Время в таблицах - всемирное. Для получения местного времени необходимо прибавить поправку, которая в Gaya равна 1 ч.

Смотрите также архив погоды в соседних городах и на ближайших метеорологических станциях:

Погода в Kandi (Бенин) (101 км)
Погода в Dosso (Нигер) (129 км)
Погода в Yelwa (Нигерия) (180 км)
Погода в Niamey (Нигер) (226 км)
Погода в Natitingou (Бенин) (285 км)
Погода в Birni-Nkonni (Нигер) (289 км)
Погода в Parakou (Бенин) (296 км)
Погода в Fada N`Gourma (Буркина-Фасо) (336 км)
Погода в Tillabery (Нигер) (337 км)
Погода в Niamtougou (Того) (348 км)

Пояснения к столбцам:

Ветер - указаны скорость ветра в м/с - средняя за 10 мин, порывы в срок и между сроками (в фигурных скобках) и направление, откуда дует ветер: С - северный, СВ - северо-восточный, В - восточный, ЮВ - юго-восточный, Ю - южный, ЮЗ - юго-западный, З - западный, СЗ - северо-западный.
Видимость - горизонтальная дальность видимости в метрах или километрах. При видимости от 1 до 10 км при отсутствии осадков обычно наблюдается дымка, при ухудшении видимости до 1 км и менее - туман. В сухую погоду видимость может ухудшаться дымом, пылью или мглою.
Явления - указаны атмосферные явления, наблюдавшиеся в срок или в последний час перед сроком; фигурными скобками обозначены явления, наблюдавшиеся между сроками (за 1-3 часа до срока); квадратными скобками обозначены град или гололедные отложения с указанием их диаметра в мм.
Облачность - указаны через наклонную черту общая и нижняя облачность в баллах и высота нижней границы облаков в метрах; квадратными скобками обозначены формы облаков: Ci - перистые, Cs - перисто-слоистые, Cc - перисто-кучевые, Ac - высококучевые, As - высокослоистые, Sc - слоисто-кучевые, Ns - слоисто-дождевые, Cu - кучевые, Cb - кучево-дождевые. Подробнее классификацию облаков см. в Атласе облаков (PDF).
T - Температура воздуха - температура, измеренная на высоте 2 м над землей.
Td - Температура точки росы - температура, при понижении до которой содержащийся в воздухе водяной пар достигнет насыщения.
f - Относительная влажность воздуха - влажноcть воздуха, измеренная на высоте 2 м над землей.
Te - Эффективная температура - температура, которую ощущает одетый по сезону человек в тени. Характеристика душности погоды. При расчете учитывается влияние влажности воздуха и скорости ветра на теплоощущения человека.
Tes - Эффективная температура на солнце - температура, которую ощущает человек, с поправкой на солнечный нагрев. Характеристика знойности погоды. Зависит от высоты солнца над горизонтом, облачности и скорости ветра. Ночью, в пасмурную погоду, а также при ветре 12 м/с и более поправка равна нулю.
P - Атмосферное давление - приведенное к уровню моря атмосферное давление.
Po - Атмосферное давление - измеренное на уровне метеостанции атмосферное давление.
Tmin - Минимальная температура - минимум температуры воздуха на высоте 2 м над землей.
Tmax - Максимальная температура - максимум температуры воздуха на высоте 2 м над землей.
R - Количество осадков - Количество выпавших осадков за период времени, мм. При наведении курсора мыши на число - период времени, за который выпало указанное количество осадков.
R24 - Количество осадков - Количество выпавших осадков за 24 часа, мм.
S - Снежный покров - Высота снежного покрова, см. При наведении курсора мыши на число - состояние снежного покрова и степень покрытия местности в баллах.